EW0600 Weather Reports


time (UTC)temp
F
wind
direction
speed
knots
gust
knots
rain 1hr
in
rain 24hr
in
rain mn
in
humidity
%
barometer
mb
20260504130300 59 279 13.9 20.9 0.00 0.00 0.00 55 994.1
20260504120241 57 264 11.3 16.5 0.00 0.00 0.00 55 993.6
20260504110159 56 235 12.2 17.4 0.00 0.00 0.00 54 992.8
20260504110104 55 230 11.3 18.2 0.00 0.00 0.00 54 992.9
20260504100105 55 230 10.4 13.9 0.00 0.00 0.00 55 993.4
20260504081502 54 221 8.7 12.2 0.00 0.00 0.00 54 995.1
20260504081037 55 229 8.7 10.4 0.00 0.00 0.00 55 995.1
20260504080104 54 222 8.7 10.4 0.00 0.00 0.00 54 995.4
20260504070106 54 217 7.8 10.4 0.00 0.00 0.00 52 996.4
20260504050356 55 200 4.3 5.2 0.00 0.00 0.00 54 998.4
20260504050006 54 204 4.3 5.2 0.00 0.00 0.00 54 998.6
20260504045411 54 200 2.6 4.3 0.00 0.00 0.00 54 998.6
20260504044602 54 184 2.6 4.3 0.00 0.00 0.00 54 998.8
20260504044403 54 195 1.7 3.5 0.00 0.00 0.00 54 998.8
20260504043415 54 139 0.0 2.6 0.00 0.00 0.00 54 999.0
20260504043003 53 162 0.9 2.6 0.00 0.00 0.00 54 999.1
20260504041601 54 163 0.9 3.5 0.00 0.00 0.00 52 999.3
20260504041300 55 174 0.9 1.7 0.00 0.00 0.00 52 999.2
20260504040238 54 195 0.9 1.7 0.00 0.00 0.00 53 999.5
20260504040003 54 205 1.7 2.6 0.00 0.00 0.00 52 999.6
20260504035228 56 201 0.9 1.7 0.00 0.00 0.00 50 999.6
20260504034602 55 203 0.9 2.6 0.00 0.00 0.00 49 999.8
20260504034235 56 182 0.9 1.7 0.00 0.00 0.00 49 999.8
20260504033003 55 174 0.9 3.5 0.00 0.00 0.00 49 1000.1
20260504032022 56 179 1.7 2.6 0.00 0.00 0.00 50 1000.1
20260504031604 55 207 2.6 3.5 0.00 0.00 0.00 49 1000.3
20260504030007 57 211 1.7 2.6 0.00 0.00 0.00 46 1000.5
20260504025833 58 211 0.9 1.7 0.00 0.00 0.00 46 1000.4
20260504024836 59 211 0.9 1.7 0.00 0.00 0.00 44 1000.5
20260504024602 58 211 0.9 2.6 0.00 0.00 0.00 44 1000.4
20260504023826 59 211 0.0 1.7 0.00 0.00 0.00 44 1000.5
20260504023003 60 215 0.9 2.6 0.00 0.00 0.00 43 1000.5
20260504021654 60 216 2.6 3.5 0.00 0.00 0.00 43 1000.4
20260504021602 60 215 2.6 3.5 0.00 0.00 0.00 43 1000.4
20260504020622 60 215 2.6 3.5 0.00 0.00 0.00 43 1000.4
20260504020004 60 221 2.6 3.5 0.00 0.00 0.00 43 1000.5
20260504015600 61 221 0.9 1.7 0.00 0.00 0.00 41 1000.5
20260504014611 62 264 0.9 2.6 0.00 0.00 0.00 38 1000.6
20260504013439 63 269 1.7 3.5 0.00 0.00 0.00 38 1000.7
20260504013009 63 261 1.7 4.3 0.00 0.00 0.00 37 1000.8
20260504012450 65 274 2.6 3.5 0.00 0.00 0.00 36 1000.8
20260504011604 64 274 2.6 5.2 0.00 0.00 0.00 35 1000.8
20260504011504 65 273 2.6 4.3 0.00 0.00 0.00 35 1000.8
20260504010002 66 281 3.5 4.3 0.00 0.00 0.00 32 1000.8
20260504004643 66 291 3.5 5.2 0.00 0.00 0.00 32 1000.8
20260504003136 67 287 5.2 9.6 0.00 0.00 0.00 33 1000.9
20260504003005 67 285 5.2 10.4 0.00 0.00 0.00 32 1000.9
20260504001623 67 281 5.2 12.2 0.00 0.00 0.00 33 1001.1
20260504001038 68 285 7.8 13.0 0.00 0.00 0.00 30 1001.1
20260504000031 68 277 11.3 14.8 0.00 0.00 0.00 28 1001.1
20260504000002 68 283 11.3 15.6 0.00 0.00 0.00 28 1001.1
20260503234606 68 278 9.6 15.6 0.00 0.00 0.00 29 1001.1
20260503233934 69 298 8.7 17.4 0.00 0.00 0.00 32 1001.1
20260503233006 69 298 6.1 18.2 0.00 0.00 0.00 32 1001.3
20260503232908 69 302 10.4 17.4 0.00 0.00 0.00 31 1001.2
20260503231838 69 283 9.6 15.6 0.00 0.00 0.00 30 1001.3
20260503231603 69 309 8.7 15.6 0.00 0.00 0.00 30 1001.4
20260503230828 69 300 9.6 15.6 0.00 0.00 0.00 30 1001.3
20260503230002 68 285 8.7 14.8 0.00 0.00 0.00 30 1001.4
20260503224718 70 278 8.7 13.9 0.00 0.00 0.00 32 1001.5
20260503224609 69 283 9.6 14.8 0.00 0.00 0.00 33 1001.6
20260503223722 69 304 9.6 15.6 0.00 0.00 0.00 32 1001.5
20260503223002 69 305 10.4 16.5 0.00 0.00 0.00 30 1001.7
20260503221605 68 296 12.2 18.2 0.00 0.00 0.00 29 1001.7
20260503221545 69 309 10.4 17.4 0.00 0.00 0.00 29 1001.6
20260503220003 68 300 7.8 16.5 0.00 0.00 0.00 30 1001.7
20260503215436 69 311 12.2 18.2 0.00 0.00 0.00 30 1001.7
20260503214604 68 300 11.3 19.1 0.00 0.00 0.00 28 1001.7
20260503214439 69 279 13.0 20.9 0.00 0.00 0.00 30 1001.7
20260503213007 68 316 15.6 21.7 0.00 0.00 0.00 30 1001.9
20260503212244 68 309 13.0 19.1 0.00 0.00 0.00 33 1001.8
20260503211606 68 314 15.6 20.0 0.00 0.00 0.00 32 1001.9
20260503211303 69 313 10.4 18.2 0.00 0.00 0.00 35 1001.8
20260503210244 69 293 11.3 18.2 0.00 0.00 0.00 36 1001.9
20260503210002 68 304 13.0 18.2 0.00 0.00 0.00 34 1002.0
20260503205251 68 309 9.6 16.5 0.00 0.00 0.00 34 1002.1
20260503204601 68 309 8.7 14.8 0.00 0.00 0.00 35 1002.2
20260503203058 68 276 11.3 18.2 0.00 0.00 0.00 35 1002.5
20260503203006 68 311 10.4 19.1 0.00 0.00 0.00 35 1002.5
20260503202033 67 299 7.8 16.5 0.00 0.00 0.00 35 1002.4
20260503201502 67 312 6.1 17.4 0.00 0.00 0.00 36 1002.5
20260503200107 67 326 7.8 16.5 0.00 0.00 0.00 33 1002.7
20260503194756 67 304 12.2 20.0 0.00 0.00 0.00 35 1003.0
20260503194502 67 314 12.2 20.9 0.00 0.00 0.00 38 1003.0
20260503193808 67 312 12.2 21.7 0.00 0.00 0.00 34 1003.0
20260503193101 67 304 13.0 23.5 0.00 0.00 0.00 35 1003.1
20260503192751 67 314 14.8 22.6 0.00 0.00 0.00 34 1003.0
20260503191502 66 316 12.2 24.3 0.00 0.00 0.00 36 1002.9
20260503190609 66 323 13.9 23.5 0.00 0.00 0.00 35 1003.0
20260503190110 66 321 13.0 20.9 0.00 0.00 0.00 37 1003.1
20260503185549 66 301 14.8 20.9 0.00 0.00 0.00 37 1003.1
20260503184608 67 323 13.9 19.1 0.00 0.00 0.00 37 1003.1
20260503184502 66 282 15.6 19.1 0.00 0.00 0.00 37 1003.1
20260503183621 67 300 12.2 19.1 0.00 0.00 0.00 41 1003.1
20260503183104 66 330 9.6 19.1 0.00 0.00 0.00 44 1003.3
20260503182611 66 307 11.3 20.9 0.00 0.00 0.00 40 1003.2
20260503181625 66 328 12.2 20.9 0.00 0.00 0.00 41 1003.3
20260503181504 65 351 8.7 21.7 0.00 0.00 0.00 40 1003.4
20260503180609 66 320 11.3 19.1 0.00 0.00 0.00 40 1003.4
20260503180105 65 317 13.9 20.0 0.00 0.00 0.00 42 1003.5
20260503174519 65 309 11.3 18.2 0.00 0.00 0.00 42 1003.5
20260503174503 65 293 11.3 19.1 0.00 0.00 0.00 42 1003.6
20260503173106 65 360 10.4 20.0 0.00 0.00 0.00 43 1003.6
20260503172411 65 332 11.3 20.0 0.00 0.00 0.00 42 1003.6
20260503171345 65 307 12.2 18.2 0.00 0.00 0.00 48 1003.6
20260503160130 63 352 13.0 19.1 0.00 0.00 0.00 48 1003.7